Waarnemingen

Advertentie
Mijn weer
Umeå Flygplats, Zweden (2286): temperatuur & dauwpunt: 13.07.2018 23:00:00 - 19.07.2018 23:00:00 (CEST)Umeå Flygplats, Zweden (2286): windsnelheid: 13.07.2018 23:00:00 - 19.07.2018 23:00:00 (CEST)Umeå Flygplats, Zweden (2286): windrichting: 13.07.2018 23:00:00 - 19.07.2018 23:00:00 (CEST)Umeå Flygplats, Zweden (2286): luchtdruk: 13.07.2018 23:00:00 - 19.07.2018 23:00:00 (CEST)Umeå Flygplats, Zweden (2286): zicht: 13.07.2018 23:00:00 - 19.07.2018 23:00:00 (CEST)
Datum & Tijd tt [°C] td [°C] ff [km/u] ff [kn] dd ppp [hPa] vv [km]
19.07.2018 23:00:00 22,0 12,0 5 3 NNO - 10
19.07.2018 22:00:00 23,8 11,8 5 3 ONO 1014,1 10
19.07.2018 21:00:00 25,3 11,5 11 6 ONO 1014,0 10
19.07.2018 20:00:00 26,7 11,6 11 6 O 1013,9 10
19.07.2018 19:00:00 26,7 12,0 13 7 O 1013,9 10
19.07.2018 18:00:00 27,3 9,6 15 8 O 1014,0 10
19.07.2018 17:00:00 28,4 11,0 15 8 O 1014,2 10
19.07.2018 16:00:00 29,1 10,2 13 7 ZO 1014,4 10
19.07.2018 15:00:00 28,4 10,1 16 9 OZO 1014,6 10
19.07.2018 14:00:00 28,5 9,2 16 9 O 1014,7 10
19.07.2018 13:00:00 28,6 9,3 13 7 OZO 1015,0 10
19.07.2018 12:00:00 28,2 10,4 13 7 ZO 1015,1 10
19.07.2018 11:00:00 27,8 10,9 13 7 ZO 1015,2 10
19.07.2018 10:00:00 26,6 13,7 11 6 ZO 1015,3 10
19.07.2018 09:00:00 25,9 14,4 9 5 ZO 1015,2 10
19.07.2018 08:00:00 24,6 14,7 8 4 OZO 1015,2 10
19.07.2018 07:00:00 23,3 15,6 0 0 N 1015,1 10
19.07.2018 06:00:00 21,4 15,5 0 0 N 1015,1 10
19.07.2018 05:00:00 16,8 14,3 5 3 WNW 1014,9 10
19.07.2018 04:00:00 15,1 13,1 5 3 NW 1015,1 10
19.07.2018 03:00:00 15,5 13,3 5 3 NW 1015,0 10
19.07.2018 02:00:00 15,8 13,5 5 3 NW 1014,9 10
19.07.2018 01:00:00 16,9 14,2 5 3 NW 1014,8 10
19.07.2018 00:00:00 20,3 14,2 5 3 - 1014,8 10
18.07.2018 23:00:00 22,8 14,4 5 3 NNO 1014,7 10
18.07.2018 22:00:00 24,7 13,6 5 3 - 1014,6 10
18.07.2018 21:00:00 26,6 14,0 8 4 NO 1014,5 10
18.07.2018 20:00:00 27,8 14,1 13 7 ONO 1014,7 10
18.07.2018 19:00:00 28,3 14,2 15 8 O 1014,8 10
18.07.2018 18:00:00 29,0 15,5 15 8 O 1014,9 10
18.07.2018 17:00:00 29,7 15,0 16 9 O 1015,2 10
18.07.2018 16:00:00 30,7 11,8 15 8 O 1015,6 10
18.07.2018 15:00:00 30,3 11,8 18 10 ONO 1015,9 10
18.07.2018 14:00:00 29,7 12,6 18 10 O 1016,4 10
18.07.2018 13:00:00 30,1 13,8 18 10 O 1016,6 10
18.07.2018 12:00:00 30,6 14,2 15 8 ZO 1016,6 10
18.07.2018 11:00:00 31,0 13,3 8 4 OZO 1017,0 10
18.07.2018 10:00:00 28,6 15,8 8 4 NO 1017,2 10
18.07.2018 09:00:00 26,6 17,1 9 5 NNO 1017,4 10
18.07.2018 08:00:00 24,6 17,1 9 5 ONO 1017,6 10
18.07.2018 07:00:00 22,9 15,7 8 4 NO 1017,6 10
18.07.2018 06:00:00 21,2 14,6 8 4 N 1017,4 10
18.07.2018 05:00:00 19,3 13,7 5 3 NNW 1017,5 10
18.07.2018 04:00:00 16,1 13,0 8 4 NNW 1017,7 10
18.07.2018 03:00:00 16,0 13,3 9 5 NNW 1017,8 10
18.07.2018 02:00:00 16,2 13,3 8 4 NW 1017,9 10
18.07.2018 01:00:00 16,3 13,2 8 4 NW 1018,1 10
18.07.2018 00:00:00 17,6 14,1 8 4 NW 1017,9 10
17.07.2018 23:00:00 21,0 15,3 5 3 N 1017,7 10
17.07.2018 22:00:00 22,1 13,4 5 3 - 1017,7 10
17.07.2018 21:00:00 23,2 12,5 9 5 O 1017,6 10
17.07.2018 20:00:00 25,4 12,6 11 6 OZO 1017,4 10
17.07.2018 19:00:00 27,7 12,1 9 5 OZO 1017,2 10
17.07.2018 18:00:00 27,7 11,3 11 6 ZO 1017,4 10
17.07.2018 17:00:00 27,5 11,1 13 7 ZO 1017,7 10
17.07.2018 16:00:00 28,0 11,5 13 7 ZO 1017,9 10
17.07.2018 15:00:00 28,0 11,5 15 8 ZZO 1018,2 10
17.07.2018 14:00:00 28,1 10,8 15 8 ZZO 1018,3 10
17.07.2018 13:00:00 28,1 11,6 15 8 Z 1018,5 10
17.07.2018 12:00:00 27,4 12,2 15 8 ZO 1018,7 10
17.07.2018 11:00:00 26,8 11,7 15 8 ZO 1018,8 10
17.07.2018 10:00:00 26,5 12,2 9 5 ZO 1018,8 10
17.07.2018 09:00:00 25,0 13,5 8 4 OZO 1018,9 10
17.07.2018 08:00:00 23,8 15,0 4 2 - 1018,9 10
17.07.2018 07:00:00 21,8 16,1 0 0 N 1018,8 10
17.07.2018 06:00:00 17,6 14,9 0 0 N 1018,9 10
17.07.2018 05:00:00 14,5 13,4 4 2 NW 1018,8 10
17.07.2018 04:00:00 11,6 11,0 4 2 NW 1018,8 5
17.07.2018 03:00:00 12,4 11,8 4 2 NW 1018,5 0,3
17.07.2018 02:00:00 12,6 11,7 0 0 N 1018,4 10
17.07.2018 01:00:00 14,4 13,9 0 0 N 1018,3 10
17.07.2018 00:00:00 15,4 14,9 0 0 N 1018,1 10
16.07.2018 23:00:00 16,6 14,6 0 0 N 1017,6 10
16.07.2018 22:00:00 19,8 16,6 2 1 - 1017,1 10
16.07.2018 21:00:00 21,7 16,2 11 6 ZZO 1017,0 10
16.07.2018 20:00:00 22,7 15,5 13 7 ZO 1017,0 10
16.07.2018 19:00:00 23,5 16,0 16 9 ZZO 1017,0 10
16.07.2018 18:00:00 24,0 14,7 18 10 ZZO 1016,9 10
16.07.2018 17:00:00 24,5 13,7 21 11 ZZO 1016,9 10
16.07.2018 16:00:00 24,8 11,7 21 11 ZZO 1016,9 10
16.07.2018 15:00:00 25,4 12,3 18 10 ZZO 1017,1 10
16.07.2018 14:00:00 24,8 11,0 22 12 ZZO 1017,3 10
16.07.2018 13:00:00 25,6 11,7 18 10 ZZO 1017,4 10
16.07.2018 12:00:00 25,6 11,7 18 10 ZZO 1017,4 10
16.07.2018 11:00:00 25,8 11,5 8 4 - 1017,5 10
16.07.2018 10:00:00 25,3 11,5 8 4 Z 1017,8 10
16.07.2018 09:00:00 24,7 11,6 4 2 - 1017,7 10
16.07.2018 08:00:00 22,9 11,3 11 6 NNO 1017,6 10
16.07.2018 07:00:00 21,1 11,1 8 4 NNW 1017,6 10
16.07.2018 06:00:00 19,2 12,0 8 4 NW 1017,7 10
16.07.2018 05:00:00 16,9 11,8 5 3 NW 1017,5 10
16.07.2018 04:00:00 14,4 10,6 9 5 NW 1017,1 10
16.07.2018 03:00:00 14,6 10,4 0 0 N 1016,8 10
16.07.2018 02:00:00 16,0 10,3 5 3 WNW 1016,4 10
16.07.2018 01:00:00 17,3 10,9 5 3 WNW 1016,0 10
16.07.2018 00:00:00 17,6 11,2 9 5 WNW 1015,5 10
15.07.2018 23:00:00 18,5 11,8 5 3 W 1015,0 10
15.07.2018 22:00:00 20,5 13,2 9 5 WNW 1014,3 10
15.07.2018 21:00:00 21,7 17,1 8 4 ZO 1013,8 10
15.07.2018 20:00:00 23,0 16,3 8 4 Z 1013,5 10
15.07.2018 19:00:00 23,3 15,9 13 7 Z 1013,2 10
15.07.2018 18:00:00 25,2 14,9 15 8 Z 1012,8 10
15.07.2018 17:00:00 25,5 14,0 15 8 Z 1012,7 10
15.07.2018 16:00:00 23,7 17,2 15 8 Z 1012,9 10
15.07.2018 15:00:00 24,8 12,1 13 7 ZW 1013,2 10
15.07.2018 14:00:00 26,7 13,4 21 11 Z 1012,7 10
15.07.2018 13:00:00 26,3 13,4 22 12 ZZO 1012,6 10
15.07.2018 12:00:00 26,6 13,3 18 10 Z 1012,7 10
15.07.2018 11:00:00 26,7 13,1 15 8 Z 1012,5 10
15.07.2018 10:00:00 26,1 15,2 16 9 ZZW 1012,4 10
15.07.2018 09:00:00 25,6 16,2 11 6 ZO 1011,9 10
15.07.2018 08:00:00 23,8 16,1 5 3 OZO 1012,0 10
15.07.2018 07:00:00 21,5 15,6 0 0 N 1012,0 10
15.07.2018 06:00:00 18,3 15,4 0 0 N 1011,9 10
15.07.2018 05:00:00 13,4 12,8 0 0 N 1011,8 10
15.07.2018 04:00:00 11,3 11,0 0 0 N 1011,8 10
15.07.2018 03:00:00 11,2 11,0 2 1 - 1011,6 3,3
15.07.2018 02:00:00 12,9 11,8 4 2 ZO 1011,4 10
15.07.2018 01:00:00 15,7 14,9 5 3 ZO 1011,3 10
15.07.2018 00:00:00 16,0 14,9 5 3 ZZO 1011,4 10
14.07.2018 23:00:00 17,0 15,0 8 4 ZO 1011,2 10
14.07.2018 22:00:00 18,9 14,6 9 5 Z 1011,0 10
14.07.2018 21:00:00 21,1 14,0 9 5 Z 1010,9 10
14.07.2018 20:00:00 22,7 13,2 15 8 Z 1010,7 10
14.07.2018 19:00:00 23,7 13,0 21 11 Z 1010,5 10
14.07.2018 18:00:00 25,0 11,9 21 11 Z 1010,5 10
14.07.2018 17:00:00 25,9 11,6 21 11 Z 1010,6 10
14.07.2018 16:00:00 26,1 11,8 22 12 Z 1010,9 10
14.07.2018 15:00:00 25,7 11,8 21 11 ZZO 1011,3 10
14.07.2018 14:00:00 25,6 12,8 18 10 Z 1011,6 10
14.07.2018 13:00:00 25,6 14,1 18 10 ZZO 1011,8 10
14.07.2018 12:00:00 24,5 12,8 16 9 ZZO 1012,3 10
14.07.2018 11:00:00 24,6 12,5 8 4 Z 1012,3 10
14.07.2018 10:00:00 24,9 12,8 4 2 - 1012,7 10
14.07.2018 09:00:00 22,7 13,2 4 2 - 1012,7 10
14.07.2018 08:00:00 20,4 14,1 2 1 - 1013,0 10
14.07.2018 07:00:00 18,1 13,4 8 4 WNW 1013,1 10
14.07.2018 06:00:00 16,1 13,8 0 0 N 1013,0 10
14.07.2018 05:00:00 12,7 12,2 4 2 NW 1013,0 10
14.07.2018 04:00:00 10,3 10,1 5 3 NW 1013,1 10
14.07.2018 03:00:00 10,8 10,8 0 0 N 1013,4 0,3
14.07.2018 02:00:00 10,8 10,5 4 2 NNW 1013,4 10
14.07.2018 01:00:00 11,9 11,4 0 0 N 1013,6 10
14.07.2018 00:00:00 15,3 15,0 2 1 - 1013,6 10
13.07.2018 23:00:00 16,2 15,2 5 3 ZZW 1013,6 10

tt = temperatuur
td = dauwpunt
ff = windsnelheid
dd = windrichting
ppp = luchtdruk
vv = zicht

Weerstations in de omgeving